AKST,Max TemperatureF,Mean TemperatureF,Min TemperatureF,Max Dew PointF,MeanDew PointF,Min DewpointF,Max Humidity, Mean Humidity, Min Humidity, Max Sea Level PressureIn, Mean Sea Level PressureIn, Min Sea Level PressureIn, Max VisibilityMiles, Mean VisibilityMiles, Min VisibilityMiles, Max Wind SpeedMPH, Mean Wind SpeedMPH, Max Gust SpeedMPH,PrecipitationIn, CloudCover, Events, WindDirDegrees
2012-1-1,-2,-9,-16,-5,-10,-20,87,80,75,29.97,29.40,28.92,10,6,1,4,0,,0.11,8,Snow,125
2012-1-2,3,-2,-7,1,-4,-11,92,84,78,29.70,29.35,28.91,10,4,1,10,3,,0.07,7,Snow,209
2012-1-3,0,-10,-20,-5,-14,-25,87,81,78,29.71,29.55,29.21,10,9,2,4,0,,0.00,5,Snow,348
2012-1-4,0,-6,-13,-4,-8,-18,92,82,78,29.56,29.26,29.04,10,5,1,5,1,,0.07,8,Snow,340
2012-1-5,27,4,-16,23,2,-20,92,84,77,29.73,29.54,29.31,10,7,2,15,4,28,0.18,6,Snow,304
2012-1-6,30,8,-15,23,4,-20,92,79,66,29.63,29.36,29.12,10,6,0,26,14,36,0.44,6,Fog-Snow,233
2012-1-7,1,-4,-9,-1,-5,-15,92,84,77,29.58,29.10,28.81,10,4,1,5,1,,0.16,8,Snow,283
2012-1-8,7,4,1,3,1,-2,92,85,78,29.65,29.15,28.82,10,5,1,5,1,,0.07,8,Snow,251
2012-1-9,1,-10,-22,-3,-17,-26,87,80,75,30.47,30.19,29.70,10,9,3,8,3,,0.00,4,Snow,340
2012-1-10,30,10,-11,22,8,-17,84,75,67,30.38,29.89,29.54,10,10,10,24,11,38,0.10,5,,139
2012-1-11,33,29,25,26,24,22,88,76,66,29.61,29.56,29.46,10,10,10,21,15,29,0.00,3,,157
2012-1-12,32,21,10,24,12,7,92,80,72,29.80,29.53,29.37,10,7,1,16,9,24,0.06,6,Snow,360
2012-1-13,10,2,-7,7,-3,-16,85,73,60,30.59,30.12,29.68,10,7,1,12,7,16,0.02,7,Snow,324
2012-1-14,-6,-20,-34,-17,-23,-34,81,69,59,31.07,30.88,30.54,10,10,10,13,5,21,0.00,0,,332
2012-1-15,-25,-32,-38,-31,-34,-36,74,72,69,31.15,31.08,30.75,10,10,10,6,3,,0.00,3,Fog,326
2012-1-16,-24,-31,-38,-31,-33,-37,74,71,66,31.08,30.96,30.63,10,10,10,6,1,,0.00,2,,350
2012-1-17,-20,-30,-41,-27,-29,-35,77,73,69,30.95,30.85,30.50,10,10,10,5,1,,0.00,2,Fog,160
2012-1-18,-20,-32,-43,-28,-30,-31,74,72,70,30.82,30.62,30.14,10,9,2,5,1,,0.00,0,Fog,330
2012-1-19,-25,-34,-44,-32,-33,-35,77,72,66,30.43,30.21,29.76,10,9,4,5,1,,0.00,2,Fog,325
2012-1-20,-22,-34,-45,-29,-32,-33,73,71,66,30.05,29.72,29.16,10,7,2,8,1,,0.00,2,Fog,325
2012-1-21,-13,-28,-44,-18,-22,-29,84,78,74,29.33,28.97,28.75,10,5,1,5,1,,0.17,6,Fog-Snow,340
2012-1-22,-4,-13,-23,-9,-16,-28,87,78,70,29.26,29.01,28.76,10,8,2,4,0,,0.02,7,Snow,310
2012-1-23,-13,-20,-27,-18,-26,-32,82,78,73,29.37,29.32,29.07,10,10,10,5,1,,0.00,4,,335
2012-1-24,-17,-24,-32,-21,-29,-35,82,77,73,29.30,29.07,28.73,10,10,10,8,2,,0.00,2,,319
2012-1-25,-9,-16,-22,-14,-19,-27,86,79,70,29.43,29.10,28.75,10,6,1,6,2,,0.08,7,Snow,21
2012-1-26,-13,-24,-35,-20,-27,-32,83,78,71,29.96,29.70,29.43,10,10,10,6,0,,0.00,3,,305
2012-1-27,-16,-26,-36,-23,-28,-33,78,76,71,30.21,30.12,29.79,10,10,10,5,1,,0.00,4,Fog-Snow,344
2012-1-28,-18,-29,-40,-26,-29,-36,82,75,69,30.18,29.97,29.55,10,10,10,5,1,,0.00,3,,316
2012-1-29,-17,-26,-35,-23,-28,-35,78,74,69,29.84,29.64,29.33,10,10,9,8,2,,0.00,6,Snow,348
2012-1-30,-13,-21,-29,-17,-24,-35,84,78,69,29.57,29.48,29.21,10,10,10,4,0,,0.00,6,,330
2012-1-31,-5,-8,-11,-9,-15,-17,84,79,75,29.65,29.49,29.22,10,10,10,4,0,,0.00,7,Snow,-1